Weather in Novaya Kalami

Russia / Krasnoyarsk Krai     60°10′25″N   93°02′45″E
temp.,
°C
wind,
m/s
gust,
m/s
humid.,
%
clouds,
%
prec.,
mm/h
press.,
hPa
HPBL,
m
25 january, tue
tue2501:00−19ssw1199100 0.3 103316
04:00−20ssw1110093 0.1 103311
07:00−22sse1110080 0.1 10339
10:00−25se1110073 0.0 103410
13:00−17ese119382 0.1 1032180
16:00−19e119984 0.0 10319
19:00−27se2110053 0.0 103410
22:00−29se2110055 0.0 103411
26 january, wed
wed2601:00−29se2110053 0.0 103511
04:00−29se2110054 0.0 103513
07:00−29se2110033 0.0 103511
10:00−28se2110031 0.0 103521
13:00−18ese129048 0.0 1033203
16:00−20ese11985 0.0 10339
19:00−27se2110031 0.0 103611
22:00−29se2110031 0.0 103712
27 january, thu
thu2701:00−28se2110013 0.0 103713
04:00−28se2110012 0.0 103712
07:00−28se2110011 0.0 103811
10:00−26se211009 0.0 103917
13:00−15s01885 0.0 1036138
16:00−17ene00975 0.0 10379
19:00−24se2110048 0.0 104010
22:00−25sse2210018 0.0 104115
28 january, fri
fri2801:00−26sse2110083 0.0 104211
04:00−26sse22100100 0.0 104211
07:00−26sse2210097 0.0 104312
10:00−25s2110071 0.0 104219
13:00−16sw129170 0.0 1040207
16:00−17ssw119757 0.0 10409
19:00−24sse2210072 0.0 104112
22:00−25sse2210058 0.0 104116
29 january, sat
sat2901:00−25sse2210043 0.0 104125
04:00−27sse2210061 0.0 104114
07:00−25sse2210098 0.0 104023
10:00−23sse2298100 0.0 103933
13:00−15ssw1488100 0.0 1037203
16:00−16ssw1198100 0.0 10369
19:00−22s2210087 0.0 103819
22:00−21s219986 0.0 103827